Time,TemperatureF,DewpointF,PressureIn,WindDirection,WindDirectionDegrees,WindSpeedMPH,WindSpeedGustMPH,Humidity,HourlyPrecipIn,Conditions,Clouds,dailyrainin,SoftwareType,DateUTC
2013-11-22 00:01:00,43.6,38.5,30.41,SSE,153,0.0,0.0,82,0.00,,---,0.00,VWS V14.01,2013-11-22 05:01:00,
2013-11-22 00:06:00,43.5,38.4,30.41,SSE,154,0.0,0.0,82,0.00,,---,0.00,VWS V14.01,2013-11-22 05:06:00,
2013-11-22 00:11:00,43.5,38.4,30.40,SSE,153,0.0,0.0,82,0.00,,---,0.00,VWS V14.01,2013-11-22 05:11:00,
2013-11-22 00:16:00,43.4,38.3,30.40,SSE,154,0.0,0.0,82,0.00,,---,0.00,VWS V14.01,2013-11-22 05:16:00,
2013-11-22 00:21:00,43.5,38.4,30.40,SSE,153,0.0,0.0,82,0.00,,---,0.00,VWS V14.01,2013-11-22 05:21:00,
2013-11-22 00:26:00,43.6,38.5,30.40,SSE,154,0.0,0.0,82,0.00,,---,0.00,VWS V14.01,2013-11-22 05:26:00,
2013-11-22 00:31:00,43.5,38.7,30.39,SSE,154,0.0,0.0,83,0.00,,---,0.00,VWS V14.01,2013-11-22 05:31:00,
2013-11-22 00:36:00,43.5,38.7,30.39,SSE,153,0.0,0.0,83,0.00,,---,0.00,VWS V14.01,2013-11-22 05:36:00,
2013-11-22 00:41:00,43.5,38.7,30.39,SSE,153,0.0,0.0,83,0.00,,---,0.00,VWS V14.01,2013-11-22 05:41:00,
2013-11-22 00:46:00,43.5,38.7,30.39,SSE,155,0.0,0.0,83,0.00,,---,0.00,VWS V14.01,2013-11-22 05:46:00,
2013-11-22 00:51:00,43.4,38.6,30.39,SSE,155,0.0,0.0,83,0.00,,---,0.00,VWS V14.01,2013-11-22 05:51:00,
2013-11-22 00:56:00,43.4,38.6,30.39,SSE,155,0.0,0.0,83,0.00,,---,0.00,VWS V14.01,2013-11-22 05:56:00,
2013-11-22 01:01:00,43.4,38.9,30.39,SSE,155,0.0,0.0,84,0.00,,---,0.00,VWS V14.01,2013-11-22 06:01:00,
2013-11-22 01:06:00,43.4,38.6,30.38,SSE,155,0.0,0.0,83,0.00,,---,0.00,VWS V14.01,2013-11-22 06:06:00,
2013-11-22 01:11:00,43.4,38.6,30.38,SSE,155,0.0,0.0,83,0.00,,---,0.00,VWS V14.01,2013-11-22 06:11:00,
2013-11-22 01:16:00,43.4,38.6,30.38,SSE,155,0.0,0.0,83,0.00,,---,0.00,VWS V14.01,2013-11-22 06:16:00,
2013-11-22 01:21:00,43.4,38.6,30.37,SSE,155,0.0,0.0,83,0.00,,---,0.00,VWS V14.01,2013-11-22 06:21:00,
2013-11-22 01:26:00,43.4,38.6,30.37,SSE,155,0.0,0.0,83,0.00,,---,0.00,VWS V14.01,2013-11-22 06:26:00,
2013-11-22 01:31:00,43.4,38.6,30.37,SSE,155,0.0,0.0,83,0.00,,---,0.00,VWS V14.01,2013-11-22 06:31:00,
2013-11-22 01:36:00,43.4,38.6,30.37,SSE,155,0.0,0.0,83,0.00,,---,0.00,VWS V14.01,2013-11-22 06:36:00,
2013-11-22 01:41:00,43.4,38.9,30.36,SSE,155,0.0,0.0,84,0.00,,---,0.00,VWS V14.01,2013-11-22 06:41:00,
2013-11-22 01:46:00,43.4,38.6,30.36,SSE,155,0.0,0.0,83,0.00,,---,0.00,VWS V14.01,2013-11-22 06:46:00,
2013-11-22 01:51:00,43.4,38.6,30.36,SSE,155,0.0,0.0,83,0.00,,---,0.00,VWS V14.01,2013-11-22 06:51:00,
2013-11-22 01:56:00,43.4,38.9,30.36,SSE,153,0.0,0.0,84,0.00,,---,0.00,VWS V14.01,2013-11-22 06:56:00,
2013-11-22 02:01:00,43.4,38.9,30.36,SSE,153,0.0,0.0,84,0.00,,---,0.00,VWS V14.01,2013-11-22 07:01:00,
2013-11-22 02:06:00,43.5,39.0,30.36,SSE,154,0.0,0.0,84,0.00,,---,0.00,VWS V14.01,2013-11-22 07:06:00,
2013-11-22 02:11:00,43.5,39.0,30.36,SSE,153,0.0,0.0,84,0.00,,---,0.00,VWS V14.01,2013-11-22 07:11:00,
2013-11-22 02:16:00,43.5,39.0,30.35,SSE,153,0.0,0.0,84,0.00,,---,0.00,VWS V14.01,2013-11-22 07:16:00,
2013-11-22 02:21:00,43.5,39.0,30.35,SSE,153,0.0,0.0,84,0.00,,---,0.00,VWS V14.01,2013-11-22 07:21:00,
2013-11-22 02:26:00,43.5,39.0,30.34,SSE,153,0.0,0.0,84,0.00,,---,0.00,VWS V14.01,2013-11-22 07:26:00,
2013-11-22 02:31:00,43.4,38.9,30.34,SSE,153,0.0,0.0,84,0.00,,---,0.00,VWS V14.01,2013-11-22 07:31:00,
2013-11-22 02:36:00,43.5,39.0,30.33,SSE,153,0.0,0.0,84,0.00,,---,0.00,VWS V14.01,2013-11-22 07:36:00,
2013-11-22 02:41:00,43.5,39.0,30.33,SSE,153,0.0,0.0,84,0.00,,---,0.00,VWS V14.01,2013-11-22 07:41:00,
2013-11-22 02:46:00,43.5,39.0,30.33,SSE,153,0.0,0.0,84,0.00,,---,0.00,VWS V14.01,2013-11-22 07:46:00,
2013-11-22 02:51:00,43.5,39.0,30.32,SSE,154,0.0,0.0,84,0.00,,---,0.00,VWS V14.01,2013-11-22 07:51:00,
2013-11-22 02:56:00,43.5,39.0,30.31,SSE,154,0.0,0.0,84,0.00,,---,0.00,VWS V14.01,2013-11-22 07:56:00,
2013-11-22 03:01:00,43.5,39.0,30.30,SSE,153,0.0,0.0,84,0.00,,---,0.00,VWS V14.01,2013-11-22 08:01:00,
2013-11-22 03:06:00,43.5,39.0,30.30,SSE,153,0.0,0.0,84,0.00,,---,0.00,VWS V14.01,2013-11-22 08:06:00,
2013-11-22 03:11:00,43.5,39.0,30.30,SSE,154,0.0,0.0,84,0.00,,---,0.00,VWS V14.01,2013-11-22 08:11:00,
2013-11-22 03:16:00,43.5,39.0,30.32,SSE,155,0.0,0.0,84,0.00,,---,0.00,VWS V14.01,2013-11-22 08:16:00,
2013-11-22 03:21:00,43.5,39.0,30.32,SSE,155,0.0,0.0,84,0.00,,---,0.00,VWS V14.01,2013-11-22 08:21:00,
2013-11-22 03:26:00,43.6,39.4,30.31,SSE,155,0.0,0.0,85,0.00,,---,0.00,VWS V14.01,2013-11-22 08:26:00,
2013-11-22 03:32:00,43.8,39.6,30.31,SSE,155,0.0,0.0,85,0.00,,---,0.00,VWS V14.01,2013-11-22 08:32:00,
2013-11-22 03:37:00,44.0,39.8,30.31,SSE,155,0.0,0.0,85,0.00,,---,0.00,VWS V14.01,2013-11-22 08:37:00,
2013-11-22 03:42:00,44.1,39.6,30.31,SSE,155,0.0,0.0,84,0.00,,---,0.00,VWS V14.01,2013-11-22 08:42:00,
2013-11-22 03:47:00,44.2,39.7,30.30,SSE,155,0.0,0.0,84,0.00,,---,0.00,VWS V14.01,2013-11-22 08:47:00,
2013-11-22 03:52:00,44.2,39.7,30.30,SSE,155,0.0,0.0,84,0.00,,---,0.00,VWS V14.01,2013-11-22 08:52:00,
2013-11-22 03:57:00,44.2,39.7,30.30,SSE,155,0.0,0.0,84,0.00,,---,0.00,VWS V14.01,2013-11-22 08:57:00,
2013-11-22 04:02:00,44.1,39.6,30.30,SSE,155,0.0,0.0,84,0.00,,---,0.00,VWS V14.01,2013-11-22 09:02:00,
2013-11-22 04:07:00,44.0,39.5,30.30,SSE,155,0.0,0.0,84,0.00,,---,0.00,VWS V14.01,2013-11-22 09:07:00,
2013-11-22 04:12:00,44.0,39.5,30.30,SSE,155,0.0,0.0,84,0.00,,---,0.00,VWS V14.01,2013-11-22 09:12:00,
2013-11-22 04:17:00,44.0,39.5,30.30,SSE,155,0.0,0.0,84,0.00,,---,0.00,VWS V14.01,2013-11-22 09:17:00,
2013-11-22 04:22:00,44.0,39.5,30.30,SSE,155,0.0,0.0,84,0.00,,---,0.00,VWS V14.01,2013-11-22 09:22:00,
2013-11-22 04:27:00,44.0,39.5,30.29,SSE,155,0.0,0.0,84,0.00,,---,0.00,VWS V14.01,2013-11-22 09:27:00,
2013-11-22 04:32:00,44.1,39.6,30.29,SSE,155,0.0,0.0,84,0.00,,---,0.00,VWS V14.01,2013-11-22 09:32:00,
2013-11-22 04:37:00,44.1,39.6,30.28,SSE,155,0.0,0.0,84,0.00,,---,0.00,VWS V14.01,2013-11-22 09:37:00,
2013-11-22 04:42:00,44.1,39.6,30.28,SSE,155,0.0,0.0,84,0.00,,---,0.00,VWS V14.01,2013-11-22 09:42:00,
2013-11-22 04:47:00,44.0,39.8,30.28,SSE,155,0.0,0.0,85,0.00,,---,0.00,VWS V14.01,2013-11-22 09:47:00,
2013-11-22 04:52:00,44.1,39.9,30.28,SSE,155,0.0,0.0,85,0.00,,---,0.00,VWS V14.01,2013-11-22 09:52:00,
2013-11-22 04:57:00,44.1,39.6,30.27,SSE,155,0.0,0.0,84,0.00,,---,0.00,VWS V14.01,2013-11-22 09:57:00,
2013-11-22 05:02:00,44.0,39.5,30.27,SSE,155,0.0,0.0,84,0.00,,---,0.00,VWS V14.01,2013-11-22 10:02:00,
2013-11-22 05:07:00,44.0,39.8,30.27,SSE,155,0.0,0.0,85,0.00,,---,0.00,VWS V14.01,2013-11-22 10:07:00,
2013-11-22 05:12:00,43.9,40.0,30.27,SSE,155,0.0,0.0,86,0.00,,---,0.00,VWS V14.01,2013-11-22 10:12:00,
2013-11-22 05:17:00,43.8,39.9,30.27,SSE,155,0.0,0.0,86,0.00,,---,0.00,VWS V14.01,2013-11-22 10:17:00,
2013-11-22 05:22:00,43.8,40.2,30.27,SSE,155,0.0,0.0,87,0.01,,---,0.01,VWS V14.01,2013-11-22 10:22:00,
2013-11-22 05:27:00,43.7,40.1,30.26,SSE,155,0.0,0.0,87,0.01,,---,0.01,VWS V14.01,2013-11-22 10:27:00,
2013-11-22 05:32:00,43.6,40.3,30.26,SSE,155,0.0,0.0,88,0.01,,---,0.01,VWS V14.01,2013-11-22 10:32:00,
2013-11-22 05:37:00,43.5,40.5,30.26,SSE,155,0.0,0.0,89,0.01,,---,0.01,VWS V14.01,2013-11-22 10:37:00,
2013-11-22 05:42:00,43.4,40.4,30.26,SSE,155,0.0,0.0,89,0.01,,---,0.01,VWS V14.01,2013-11-22 10:42:00,
2013-11-22 05:47:00,43.3,40.6,30.25,SSE,155,0.0,0.0,90,0.01,,---,0.01,VWS V14.01,2013-11-22 10:47:00,
2013-11-22 05:52:00,43.2,40.5,30.25,SSE,153,0.0,0.0,90,0.02,,---,0.02,VWS V14.01,2013-11-22 10:52:00,
2013-11-22 05:57:00,43.1,40.7,30.25,SSE,155,0.0,0.0,91,0.02,,---,0.02,VWS V14.01,2013-11-22 10:57:00,
2013-11-22 06:02:00,43.0,40.6,30.25,SSE,155,0.0,0.0,91,0.02,,---,0.02,VWS V14.01,2013-11-22 11:02:00,
2013-11-22 06:07:00,42.9,40.7,30.25,SSE,155,0.0,0.0,92,0.02,,---,0.02,VWS V14.01,2013-11-22 11:07:00,
2013-11-22 06:12:00,42.9,40.7,30.25,SSE,155,0.0,0.0,92,0.02,,---,0.02,VWS V14.01,2013-11-22 11:12:00,
2013-11-22 06:17:00,42.9,40.7,30.25,SSE,155,0.0,0.0,92,0.02,,---,0.02,VWS V14.01,2013-11-22 11:17:00,
2013-11-22 06:22:00,43.0,40.8,30.25,SSE,155,0.0,0.0,92,0.02,,---,0.02,VWS V14.01,2013-11-22 11:22:00,
2013-11-22 06:27:00,43.0,41.1,30.25,SSE,155,0.0,0.0,93,0.02,,---,0.02,VWS V14.01,2013-11-22 11:27:00,
2013-11-22 06:32:00,42.9,41.0,30.24,SSE,155,0.0,0.0,93,0.02,,---,0.03,VWS V14.01,2013-11-22 11:32:00,
2013-11-22 06:37:00,43.0,41.1,30.24,SSE,155,0.0,0.0,93,0.02,,---,0.03,VWS V14.01,2013-11-22 11:37:00,
2013-11-22 06:42:00,43.0,41.1,30.24,SSE,155,0.0,0.0,93,0.02,,---,0.03,VWS V14.01,2013-11-22 11:42:00,
2013-11-22 06:47:00,43.0,41.1,30.24,SSE,155,0.0,0.0,93,0.02,,---,0.03,VWS V14.01,2013-11-22 11:47:00,
2013-11-22 06:52:00,43.1,41.5,30.24,SSE,155,0.0,0.0,94,0.02,,---,0.03,VWS V14.01,2013-11-22 11:52:00,
2013-11-22 06:57:00,43.1,41.5,30.23,SSE,155,0.0,0.0,94,0.02,,---,0.03,VWS V14.01,2013-11-22 11:57:00,
2013-11-22 07:02:00,43.3,41.7,30.23,SSE,155,0.0,0.0,94,0.01,,---,0.03,VWS V14.01,2013-11-22 12:02:00,
2013-11-22 07:07:00,43.4,41.8,30.22,SSE,155,0.0,0.0,94,0.01,,---,0.03,VWS V14.01,2013-11-22 12:07:00,
2013-11-22 07:12:00,43.4,41.8,30.22,SSE,153,0.0,0.0,94,0.01,,---,0.03,VWS V14.01,2013-11-22 12:12:00,
2013-11-22 07:17:00,43.3,41.7,30.22,SSE,155,0.0,0.0,94,0.01,,---,0.03,VWS V14.01,2013-11-22 12:17:00,
2013-11-22 07:22:00,43.2,41.6,30.22,SSE,155,0.0,0.0,94,0.01,,---,0.03,VWS V14.01,2013-11-22 12:22:00,
2013-11-22 07:27:00,43.3,42.0,30.22,SSE,155,0.0,0.0,95,0.01,,---,0.03,VWS V14.01,2013-11-22 12:27:00,
2013-11-22 07:32:00,43.4,42.1,30.22,SSE,155,0.0,0.0,95,0.01,,---,0.03,VWS V14.01,2013-11-22 12:32:00,
2013-11-22 07:37:00,43.5,42.2,30.22,SSE,155,0.0,0.0,95,0.01,,---,0.03,VWS V14.01,2013-11-22 12:37:00,
2013-11-22 07:42:00,43.5,42.2,30.21,SSE,155,0.0,0.0,95,0.01,,---,0.03,VWS V14.01,2013-11-22 12:42:00,
2013-11-22 07:47:00,43.5,42.2,30.21,SSE,155,0.0,0.0,95,0.01,,---,0.03,VWS V14.01,2013-11-22 12:47:00,
2013-11-22 07:52:00,43.6,42.3,30.21,SSE,155,0.0,0.0,95,0.01,,---,0.03,VWS V14.01,2013-11-22 12:52:00,
2013-11-22 07:57:00,43.6,42.3,30.21,SSE,155,0.0,0.0,95,0.01,,---,0.03,VWS V14.01,2013-11-22 12:57:00,
2013-11-22 08:02:00,43.7,42.4,30.21,SSE,155,0.0,0.0,95,0.00,,---,0.03,VWS V14.01,2013-11-22 13:02:00,
2013-11-22 08:07:00,43.8,42.7,30.21,SSE,155,0.0,0.0,96,0.00,,---,0.03,VWS V14.01,2013-11-22 13:07:00,
2013-11-22 08:12:00,43.9,42.8,30.21,SSE,155,0.0,0.0,96,0.00,,---,0.03,VWS V14.01,2013-11-22 13:12:00,
2013-11-22 08:17:00,44.1,43.0,30.21,WSW,245,0.0,0.0,96,0.00,,---,0.03,VWS V14.01,2013-11-22 13:17:00,
2013-11-22 08:22:00,44.2,43.1,30.21,WSW,246,0.0,0.0,96,0.00,,---,0.03,VWS V14.01,2013-11-22 13:22:00,
2013-11-22 08:27:00,44.3,43.2,30.21,WSW,246,0.0,0.0,96,0.00,,---,0.03,VWS V14.01,2013-11-22 13:27:00,
2013-11-22 08:32:00,44.4,43.3,30.20,WSW,246,0.0,0.0,96,0.00,,---,0.03,VWS V14.01,2013-11-22 13:32:00,
2013-11-22 08:37:00,44.5,43.4,30.20,WSW,246,0.0,0.0,96,0.01,,---,0.04,VWS V14.01,2013-11-22 13:37:00,
2013-11-22 08:42:00,44.7,43.6,30.19,WSW,246,0.0,0.0,96,0.01,,---,0.04,VWS V14.01,2013-11-22 13:42:00,
2013-11-22 08:47:00,44.9,43.8,30.19,WSW,246,0.0,0.0,96,0.01,,---,0.04,VWS V14.01,2013-11-22 13:47:00,
2013-11-22 08:52:00,45.0,43.9,30.19,WSW,246,0.0,0.0,96,0.01,,---,0.04,VWS V14.01,2013-11-22 13:52:00,
2013-11-22 08:57:00,45.1,44.0,30.19,WSW,246,0.0,0.0,96,0.01,,---,0.04,VWS V14.01,2013-11-22 13:57:00,
2013-11-22 09:02:00,45.2,44.1,30.19,WSW,246,0.0,0.0,96,0.01,,---,0.04,VWS V14.01,2013-11-22 14:02:00,
2013-11-22 09:07:00,45.2,44.1,30.19,WSW,246,0.0,0.0,96,0.01,,---,0.04,VWS V14.01,2013-11-22 14:07:00,
2013-11-22 09:12:00,45.3,44.2,30.19,WSW,246,0.0,0.0,96,0.01,,---,0.04,VWS V14.01,2013-11-22 14:12:00,
2013-11-22 09:17:00,45.4,44.3,30.18,WSW,246,0.0,0.0,96,0.01,,---,0.04,VWS V14.01,2013-11-22 14:17:00,
2013-11-22 09:22:00,45.5,44.4,30.18,WSW,246,0.0,0.0,96,0.01,,---,0.04,VWS V14.01,2013-11-22 14:22:00,
2013-11-22 09:27:00,45.6,44.5,30.18,WSW,246,0.0,0.0,96,0.01,,---,0.04,VWS V14.01,2013-11-22 14:27:00,
2013-11-22 09:32:00,45.7,44.6,30.17,WSW,245,0.0,0.0,96,0.01,,---,0.04,VWS V14.01,2013-11-22 14:32:00,
2013-11-22 09:37:00,45.9,44.8,30.17,West,260,0.0,0.0,96,0.01,,---,0.04,VWS V14.01,2013-11-22 14:37:00,
2013-11-22 09:42:00,46.0,44.9,30.18,West,260,0.0,0.0,96,0.01,,---,0.04,VWS V14.01,2013-11-22 14:42:00,
2013-11-22 09:47:00,46.1,45.0,30.17,West,260,0.0,0.0,96,0.01,,---,0.04,VWS V14.01,2013-11-22 14:47:00,
2013-11-22 09:52:00,46.2,45.1,30.17,West,260,0.0,0.0,96,0.01,,---,0.04,VWS V14.01,2013-11-22 14:52:00,
2013-11-22 09:57:00,46.3,45.2,30.17,West,260,0.0,0.0,96,0.01,,---,0.04,VWS V14.01,2013-11-22 14:57:00,
2013-11-22 10:02:00,46.4,45.3,30.17,West,260,0.0,0.0,96,0.00,,---,0.04,VWS V14.01,2013-11-22 15:02:00,
2013-11-22 10:07:00,46.4,45.0,30.16,West,259,0.0,0.0,95,0.00,,---,0.04,VWS V14.01,2013-11-22 15:07:00,
2013-11-22 10:12:00,46.5,45.4,30.16,West,260,0.0,0.0,96,0.00,,---,0.04,VWS V14.01,2013-11-22 15:12:00,
2013-11-22 10:17:00,46.6,45.2,30.15,West,277,0.0,0.0,95,0.00,,---,0.04,VWS V14.01,2013-11-22 15:17:00,
2013-11-22 10:22:00,46.7,45.6,30.15,West,274,1.0,1.0,96,0.00,,---,0.04,VWS V14.01,2013-11-22 15:22:00,
2013-11-22 10:27:00,46.8,45.7,30.15,West,274,0.0,2.0,96,0.00,,---,0.04,VWS V14.01,2013-11-22 15:27:00,
2013-11-22 10:32:00,46.8,45.5,30.15,West,274,0.0,0.0,95,0.00,,---,0.04,VWS V14.01,2013-11-22 15:32:00,
2013-11-22 10:37:00,46.9,45.8,30.15,West,265,0.0,1.0,96,0.00,,---,0.04,VWS V14.01,2013-11-22 15:37:00,
2013-11-22 10:42:00,47.0,45.7,30.15,West,271,0.0,1.0,95,0.00,,---,0.04,VWS V14.01,2013-11-22 15:42:00,
2013-11-22 10:47:00,47.2,46.1,30.14,West,271,0.0,1.0,96,0.00,,---,0.04,VWS V14.01,2013-11-22 15:47:00,
2013-11-22 10:52:00,47.3,46.2,30.14,West,276,0.0,2.0,96,0.00,,---,0.04,VWS V14.01,2013-11-22 15:52:00,
2013-11-22 10:57:00,47.4,46.3,30.13,West,276,1.0,2.0,96,0.00,,---,0.04,VWS V14.01,2013-11-22 15:57:00,
2013-11-22 11:02:00,47.6,46.5,30.12,West,263,0.0,0.0,96,0.00,,---,0.04,VWS V14.01,2013-11-22 16:02:00,
2013-11-22 11:07:00,47.8,46.4,30.12,West,278,1.0,2.0,95,0.00,,---,0.04,VWS V14.01,2013-11-22 16:07:00,
2013-11-22 11:12:00,48.0,46.6,30.12,West,274,4.0,4.0,95,0.00,,---,0.04,VWS V14.01,2013-11-22 16:12:00,
2013-11-22 11:17:00,48.4,47.0,30.12,West,267,1.0,4.0,95,0.00,,---,0.04,VWS V14.01,2013-11-22 16:17:00,
2013-11-22 11:22:00,48.8,47.4,30.12,West,262,3.0,4.0,95,0.00,,---,0.04,VWS V14.01,2013-11-22 16:22:00,
2013-11-22 11:27:00,49.1,47.5,30.11,WSW,241,1.0,5.0,94,0.00,,---,0.04,VWS V14.01,2013-11-22 16:27:00,
2013-11-22 11:32:00,49.4,47.8,30.11,West,273,2.0,3.0,94,0.00,,---,0.04,VWS V14.01,2013-11-22 16:32:00,
2013-11-22 11:37:00,49.5,47.6,30.11,WNW,293,1.0,5.0,93,0.00,,---,0.04,VWS V14.01,2013-11-22 16:37:00,
2013-11-22 11:42:00,49.8,47.6,30.10,West,271,4.0,5.0,92,0.00,,---,0.04,VWS V14.01,2013-11-22 16:42:00,
2013-11-22 11:47:00,50.1,47.9,30.10,West,263,2.0,5.0,92,0.00,,---,0.04,VWS V14.01,2013-11-22 16:47:00,
2013-11-22 11:52:00,50.4,48.2,30.10,West,260,1.0,5.0,92,0.00,,---,0.04,VWS V14.01,2013-11-22 16:52:00,
2013-11-22 11:57:00,50.8,48.3,30.09,West,273,1.0,5.0,91,0.00,,---,0.04,VWS V14.01,2013-11-22 16:57:00,
2013-11-22 12:02:00,51.4,49.2,30.09,SE,133,1.0,1.0,92,0.00,,---,0.04,VWS V14.01,2013-11-22 17:02:00,
2013-11-22 12:07:00,52.2,49.7,30.09,WSW,246,0.0,2.0,91,0.00,,---,0.04,VWS V14.01,2013-11-22 17:07:00,
2013-11-22 12:12:00,52.8,49.3,30.09,SW,231,1.0,4.0,88,0.00,,---,0.04,VWS V14.01,2013-11-22 17:12:00,
2013-11-22 12:17:00,53.3,49.2,30.08,WNW,286,0.0,4.0,86,0.00,,---,0.04,VWS V14.01,2013-11-22 17:17:00,
2013-11-22 12:22:00,53.6,49.2,30.07,WNW,295,1.0,4.0,85,0.00,,---,0.04,VWS V14.01,2013-11-22 17:22:00,
2013-11-22 12:27:00,53.9,49.2,30.07,West,271,3.0,4.0,84,0.00,,---,0.04,VWS V14.01,2013-11-22 17:27:00,
2013-11-22 12:32:00,54.1,49.4,30.07,West,281,3.0,3.0,84,0.00,,---,0.04,VWS V14.01,2013-11-22 17:32:00,
2013-11-22 12:37:00,54.3,48.9,30.07,WNW,287,3.0,5.0,82,0.00,,---,0.04,VWS V14.01,2013-11-22 17:37:00,
2013-11-22 12:42:00,54.8,48.8,30.07,West,274,3.0,6.0,80,0.00,,---,0.04,VWS V14.01,2013-11-22 17:42:00,
2013-11-22 12:47:00,55.2,48.5,30.07,WSW,253,3.0,9.0,78,0.00,,---,0.04,VWS V14.01,2013-11-22 17:47:00,
2013-11-22 12:51:00,55.4,48.0,30.06,West,280,8.0,12.0,76,0.00,,---,0.04,VWS V14.01,2013-11-22 17:51:00,
2013-11-22 12:56:00,55.5,48.1,30.06,WNW,288,3.0,13.0,76,0.00,,---,0.04,VWS V14.01,2013-11-22 17:56:00,
2013-11-22 13:01:00,55.8,48.7,30.06,West,273,2.0,2.0,77,0.00,,---,0.04,VWS V14.01,2013-11-22 18:01:00,
2013-11-22 13:06:00,56.2,48.8,30.06,West,270,5.0,11.0,76,0.00,,---,0.04,VWS V14.01,2013-11-22 18:06:00,
2013-11-22 13:11:00,56.2,48.0,30.06,WNW,288,3.0,11.0,74,0.00,,---,0.04,VWS V14.01,2013-11-22 18:11:00,
2013-11-22 13:16:00,56.2,48.0,30.06,NW,317,2.0,11.0,74,0.00,,---,0.04,VWS V14.01,2013-11-22 18:16:00,
2013-11-22 13:21:00,56.3,48.1,30.05,SW,232,1.0,11.0,74,0.00,,---,0.04,VWS V14.01,2013-11-22 18:21:00,
2013-11-22 13:26:00,56.5,48.3,30.05,West,259,4.0,11.0,74,0.00,,---,0.04,VWS V14.01,2013-11-22 18:26:00,
2013-11-22 13:31:00,56.6,48.4,30.05,WNW,302,2.0,3.0,74,0.00,,---,0.04,VWS V14.01,2013-11-22 18:31:00,
2013-11-22 13:36:00,56.6,48.4,30.05,West,267,4.0,5.0,74,0.00,,---,0.04,VWS V14.01,2013-11-22 18:36:00,
2013-11-22 13:41:00,56.8,48.6,30.04,NNW,332,4.0,6.0,74,0.00,,---,0.04,VWS V14.01,2013-11-22 18:41:00,
2013-11-22 13:46:00,57.1,48.9,30.04,West,263,2.0,6.0,74,0.00,,---,0.04,VWS V14.01,2013-11-22 18:46:00,
2013-11-22 13:51:00,57.3,48.4,30.03,WNW,298,3.0,10.0,72,0.00,,---,0.04,VWS V14.01,2013-11-22 18:51:00,
2013-11-22 13:56:00,57.3,48.4,30.03,NW,319,3.0,10.0,72,0.00,,---,0.04,VWS V14.01,2013-11-22 18:56:00,
2013-11-22 14:01:00,57.2,48.3,30.03,NW,305,2.0,3.0,72,0.00,,---,0.04,VWS V14.01,2013-11-22 19:01:00,
2013-11-22 14:06:00,57.3,48.4,30.03,NNW,328,1.0,3.0,72,0.00,,---,0.04,VWS V14.01,2013-11-22 19:06:00,
2013-11-22 14:11:00,57.2,48.3,30.03,West,280,5.0,7.0,72,0.00,,---,0.04,VWS V14.01,2013-11-22 19:11:00,
2013-11-22 14:16:00,57.1,48.2,30.03,West,273,5.0,7.0,72,0.00,,---,0.04,VWS V14.01,2013-11-22 19:16:00,
2013-11-22 14:21:00,57.1,48.2,30.03,West,263,1.0,7.0,72,0.00,,---,0.04,VWS V14.01,2013-11-22 19:21:00,
2013-11-22 14:26:00,57.1,48.2,30.03,SW,229,0.0,7.0,72,0.00,,---,0.04,VWS V14.01,2013-11-22 19:26:00,
2013-11-22 14:31:00,57.2,48.6,30.02,NW,317,0.0,0.0,73,0.00,,---,0.04,VWS V14.01,2013-11-22 19:31:00,
2013-11-22 14:36:00,57.3,48.7,30.02,NW,304,3.0,3.0,73,0.00,,---,0.04,VWS V14.01,2013-11-22 19:36:00,
2013-11-22 14:41:00,57.1,48.5,30.02,West,260,5.0,7.0,73,0.00,,---,0.04,VWS V14.01,2013-11-22 19:41:00,
2013-11-22 14:46:00,56.8,48.2,30.02,West,264,5.0,8.0,73,0.00,,---,0.04,VWS V14.01,2013-11-22 19:46:00,
2013-11-22 14:51:00,56.5,48.3,30.02,South,191,2.0,8.0,74,0.00,,---,0.04,VWS V14.01,2013-11-22 19:51:00,
2013-11-22 14:56:00,56.5,48.3,30.03,West,271,5.0,8.0,74,0.00,,---,0.04,VWS V14.01,2013-11-22 19:56:00,
2013-11-22 15:01:00,56.4,48.2,30.03,WNW,298,2.0,2.0,74,0.00,,---,0.04,VWS V14.01,2013-11-22 20:01:00,
2013-11-22 15:06:00,56.4,48.2,30.03,WSW,240,3.0,5.0,74,0.00,,---,0.04,VWS V14.01,2013-11-22 20:06:00,
2013-11-22 15:11:00,56.3,48.1,30.02,West,264,1.0,7.0,74,0.00,,---,0.04,VWS V14.01,2013-11-22 20:11:00,
2013-11-22 15:16:00,56.3,48.1,30.02,SW,235,0.0,7.0,74,0.00,,---,0.04,VWS V14.01,2013-11-22 20:16:00,
2013-11-22 15:21:00,56.1,47.9,30.01,WSW,255,2.0,7.0,74,0.00,,---,0.04,VWS V14.01,2013-11-22 20:21:00,
2013-11-22 15:26:00,55.9,48.1,30.02,West,277,1.0,7.0,75,0.00,,---,0.04,VWS V14.01,2013-11-22 20:26:00,
2013-11-22 15:31:00,55.8,48.4,30.01,West,266,3.0,3.0,76,0.00,,---,0.04,VWS V14.01,2013-11-22 20:31:00,
2013-11-22 15:36:00,55.7,48.3,30.01,WSW,256,1.0,3.0,76,0.00,,---,0.04,VWS V14.01,2013-11-22 20:36:00,
2013-11-22 15:41:00,55.7,48.3,30.01,SW,235,1.0,3.0,76,0.00,,---,0.04,VWS V14.01,2013-11-22 20:41:00,
2013-11-22 15:46:00,55.6,48.2,30.01,WSW,256,1.0,3.0,76,0.00,,---,0.04,VWS V14.01,2013-11-22 20:46:00,
2013-11-22 15:51:00,55.5,48.1,30.01,WSW,257,1.0,3.0,76,0.00,,---,0.04,VWS V14.01,2013-11-22 20:51:00,
2013-11-22 15:56:00,55.4,48.0,30.01,SSW,201,1.0,3.0,76,0.00,,---,0.04,VWS V14.01,2013-11-22 20:56:00,
2013-11-22 16:01:00,55.3,47.9,30.01,WSW,243,0.0,1.0,76,0.00,,---,0.04,VWS V14.01,2013-11-22 21:01:00,
2013-11-22 16:06:00,55.2,48.1,30.00,WSW,240,1.0,2.0,77,0.00,,---,0.04,VWS V14.01,2013-11-22 21:06:00,
2013-11-22 16:11:00,55.0,47.9,30.02,West,264,3.0,3.0,77,0.00,,---,0.04,VWS V14.01,2013-11-22 21:11:00,
2013-11-22 16:16:00,54.8,48.1,30.02,West,280,2.0,5.0,78,0.00,,---,0.04,VWS V14.01,2013-11-22 21:16:00,
2013-11-22 16:21:00,54.6,47.9,30.01,SW,218,0.0,5.0,78,0.00,,---,0.04,VWS V14.01,2013-11-22 21:21:00,
2013-11-22 16:26:00,54.5,47.8,30.01,West,265,3.0,5.0,78,0.00,,---,0.04,VWS V14.01,2013-11-22 21:26:00,
2013-11-22 16:31:00,54.5,47.8,30.00,WSW,247,4.0,8.0,78,0.00,,---,0.04,VWS V14.01,2013-11-22 21:31:00,
2013-11-22 16:36:00,54.5,47.8,30.00,West,259,2.0,8.0,78,0.00,,---,0.04,VWS V14.01,2013-11-22 21:36:00,
2013-11-22 16:41:00,54.4,47.7,30.00,WSW,243,1.0,8.0,78,0.00,,---,0.04,VWS V14.01,2013-11-22 21:41:00,
2013-11-22 16:46:00,54.3,47.9,30.00,WSW,258,2.0,8.0,79,0.00,,---,0.04,VWS V14.01,2013-11-22 21:46:00,
2013-11-22 16:51:00,54.3,47.9,30.00,West,262,1.0,8.0,79,0.00,,---,0.04,VWS V14.01,2013-11-22 21:51:00,
2013-11-22 16:56:00,54.2,47.8,30.00,WSW,256,1.0,8.0,79,0.00,,---,0.04,VWS V14.01,2013-11-22 21:56:00,
2013-11-22 17:01:00,54.2,47.8,30.00,West,263,3.0,3.0,79,0.00,,---,0.04,VWS V14.01,2013-11-22 22:01:00,
2013-11-22 17:06:00,54.2,47.8,30.00,West,274,2.0,4.0,79,0.00,,---,0.04,VWS V14.01,2013-11-22 22:06:00,
2013-11-22 17:11:00,54.1,47.7,30.00,West,271,3.0,4.0,79,0.00,,---,0.04,VWS V14.01,2013-11-22 22:11:00,
2013-11-22 17:16:00,54.0,48.0,29.99,WSW,238,0.0,4.0,80,0.00,,---,0.04,VWS V14.01,2013-11-22 22:16:00,
2013-11-22 17:21:00,53.9,47.9,29.99,WSW,248,1.0,4.0,80,0.00,,---,0.04,VWS V14.01,2013-11-22 22:21:00,
2013-11-22 17:26:00,53.8,47.8,29.99,West,260,2.0,4.0,80,0.00,,---,0.04,VWS V14.01,2013-11-22 22:26:00,
2013-11-22 17:31:00,53.8,47.8,29.99,West,268,1.0,2.0,80,0.00,,---,0.04,VWS V14.01,2013-11-22 22:31:00,
2013-11-22 17:36:00,53.7,47.7,29.99,West,273,1.0,4.0,80,0.00,,---,0.04,VWS V14.01,2013-11-22 22:36:00,
2013-11-22 17:41:00,53.6,47.9,29.99,West,259,1.0,4.0,81,0.00,,---,0.04,VWS V14.01,2013-11-22 22:41:00,
2013-11-22 17:46:00,53.5,47.8,29.99,West,270,0.0,4.0,81,0.00,,---,0.04,VWS V14.01,2013-11-22 22:46:00,
2013-11-22 17:51:00,53.4,47.7,29.99,West,273,0.0,4.0,81,0.00,,---,0.04,VWS V14.01,2013-11-22 22:51:00,
2013-11-22 17:56:00,53.3,47.6,29.99,West,265,1.0,4.0,81,0.00,,---,0.04,VWS V14.01,2013-11-22 22:56:00,
2013-11-22 18:01:00,53.2,47.9,29.98,West,280,0.0,0.0,82,0.00,,---,0.04,VWS V14.01,2013-11-22 23:01:00,
2013-11-22 18:06:00,53.1,47.8,29.98,SW,236,2.0,2.0,82,0.00,,---,0.04,VWS V14.01,2013-11-22 23:06:00,
2013-11-22 18:11:00,53.1,47.8,29.98,West,273,1.0,3.0,82,0.00,,---,0.04,VWS V14.01,2013-11-22 23:11:00,
2013-11-22 18:16:00,52.9,47.6,29.98,West,259,1.0,3.0,82,0.00,,---,0.04,VWS V14.01,2013-11-22 23:16:00,
2013-11-22 18:21:00,52.9,47.9,29.98,WSW,256,1.0,3.0,83,0.00,,---,0.04,VWS V14.01,2013-11-22 23:21:00,
2013-11-22 18:26:00,52.9,47.9,29.98,West,281,0.0,3.0,83,0.00,,---,0.04,VWS V14.01,2013-11-22 23:26:00,
2013-11-22 18:31:00,52.8,47.8,29.98,SW,231,1.0,2.0,83,0.00,,---,0.04,VWS V14.01,2013-11-22 23:31:00,
2013-11-22 18:36:00,52.8,47.8,29.98,WNW,285,1.0,2.0,83,0.00,,---,0.04,VWS V14.01,2013-11-22 23:36:00,
2013-11-22 18:41:00,52.8,47.8,29.98,WSW,240,0.0,2.0,83,0.00,,---,0.04,VWS V14.01,2013-11-22 23:41:00,
2013-11-22 18:46:00,52.7,47.7,29.98,West,277,1.0,2.0,83,0.00,,---,0.04,VWS V14.01,2013-11-22 23:46:00,
2013-11-22 18:51:00,52.7,47.7,29.98,West,277,0.0,2.0,83,0.00,,---,0.04,VWS V14.01,2013-11-22 23:51:00,
2013-11-22 18:56:00,52.6,47.9,29.98,West,270,1.0,2.0,84,0.00,,---,0.04,VWS V14.01,2013-11-22 23:56:00,
2013-11-22 19:01:00,52.6,47.9,29.97,West,270,0.0,0.0,84,0.00,,---,0.04,VWS V14.01,2013-11-23 00:01:00,
2013-11-22 19:06:00,52.6,47.9,29.97,West,270,0.0,1.0,84,0.00,,---,0.04,VWS V14.01,2013-11-23 00:06:00,
2013-11-22 19:11:00,52.6,47.9,29.97,West,270,0.0,1.0,84,0.00,,---,0.04,VWS V14.01,2013-11-23 00:11:00,
2013-11-22 19:16:00,52.6,47.9,29.96,WSW,244,0.0,2.0,84,0.00,,---,0.04,VWS V14.01,2013-11-23 00:16:00,
2013-11-22 19:21:00,52.6,47.9,29.97,West,264,0.0,2.0,84,0.00,,---,0.04,VWS V14.01,2013-11-23 00:21:00,
2013-11-22 19:26:00,52.5,47.8,29.97,West,269,0.0,2.0,84,0.00,,---,0.04,VWS V14.01,2013-11-23 00:26:00,
2013-11-22 19:31:00,52.5,47.8,29.97,West,269,0.0,0.0,84,0.00,,---,0.04,VWS V14.01,2013-11-23 00:31:00,
2013-11-22 19:36:00,52.5,47.8,29.96,West,269,0.0,1.0,84,0.00,,---,0.04,VWS V14.01,2013-11-23 00:36:00,
2013-11-22 19:41:00,52.6,47.9,29.96,West,260,0.0,1.0,84,0.00,,---,0.04,VWS V14.01,2013-11-23 00:41:00,
2013-11-22 19:46:00,52.6,47.9,29.96,West,260,0.0,1.0,84,0.00,,---,0.04,VWS V14.01,2013-11-23 00:46:00,
2013-11-22 19:51:00,52.5,47.8,29.96,WSW,257,0.0,1.0,84,0.00,,---,0.04,VWS V14.01,2013-11-23 00:51:00,
2013-11-22 19:56:00,52.4,47.7,29.96,West,259,0.0,1.0,84,0.00,,---,0.04,VWS V14.01,2013-11-23 00:56:00,
2013-11-22 20:01:00,52.4,47.7,29.96,West,259,0.0,0.0,84,0.00,,---,0.04,VWS V14.01,2013-11-23 01:01:00,
2013-11-22 20:06:00,52.4,47.7,29.96,WSW,258,0.0,1.0,84,0.00,,---,0.04,VWS V14.01,2013-11-23 01:06:00,
2013-11-22 20:11:00,52.4,48.0,29.96,West,259,0.0,1.0,85,0.00,,---,0.04,VWS V14.01,2013-11-23 01:11:00,
2013-11-22 20:16:00,52.3,47.9,29.96,WSW,258,0.0,1.0,85,0.00,,---,0.04,VWS V14.01,2013-11-23 01:16:00,
2013-11-22 20:21:00,52.2,47.8,29.96,WSW,258,0.0,1.0,85,0.00,,---,0.04,VWS V14.01,2013-11-23 01:21:00,
2013-11-22 20:26:00,52.2,47.8,29.96,West,259,0.0,1.0,85,0.00,,---,0.04,VWS V14.01,2013-11-23 01:26:00,
2013-11-22 20:31:00,52.1,47.7,29.96,West,259,0.0,0.0,85,0.00,,---,0.04,VWS V14.01,2013-11-23 01:31:00,
2013-11-22 20:36:00,52.1,47.7,29.96,West,259,0.0,1.0,85,0.00,,---,0.04,VWS V14.01,2013-11-23 01:36:00,
2013-11-22 20:41:00,52.1,47.7,29.95,West,260,0.0,1.0,85,0.00,,---,0.04,VWS V14.01,2013-11-23 01:41:00,
2013-11-22 20:46:00,52.1,47.7,29.95,West,273,0.0,1.0,85,0.00,,---,0.04,VWS V14.01,2013-11-23 01:46:00,
2013-11-22 20:51:00,52.0,47.6,29.95,West,273,0.0,1.0,85,0.00,,---,0.04,VWS V14.01,2013-11-23 01:51:00,
2013-11-22 20:56:00,52.0,47.6,29.95,West,273,0.0,1.0,85,0.00,,---,0.04,VWS V14.01,2013-11-23 01:56:00,
2013-11-22 21:01:00,52.0,48.0,29.95,West,273,0.0,0.0,86,0.00,,---,0.04,VWS V14.01,2013-11-23 02:01:00,
2013-11-22 21:06:00,52.0,48.0,29.95,West,280,0.0,1.0,86,0.00,,---,0.04,VWS V14.01,2013-11-23 02:06:00,
2013-11-22 21:11:00,52.0,48.0,29.95,West,277,0.0,2.0,86,0.00,,---,0.04,VWS V14.01,2013-11-23 02:11:00,
2013-11-22 21:16:00,52.0,48.0,29.94,West,277,0.0,2.0,86,0.00,,---,0.04,VWS V14.01,2013-11-23 02:16:00,
2013-11-22 21:21:00,52.0,48.0,29.93,West,278,0.0,2.0,86,0.00,,---,0.04,VWS V14.01,2013-11-23 02:21:00,
2013-11-22 21:26:00,51.8,47.8,29.93,West,278,0.0,2.0,86,0.00,,---,0.04,VWS V14.01,2013-11-23 02:26:00,
2013-11-22 21:31:00,51.5,47.5,29.93,West,278,0.0,0.0,86,0.00,,---,0.04,VWS V14.01,2013-11-23 02:31:00,
2013-11-22 21:36:00,51.2,47.5,29.93,West,278,0.0,0.0,87,0.00,,---,0.04,VWS V14.01,2013-11-23 02:36:00,
2013-11-22 21:41:00,50.8,47.1,29.93,West,278,0.0,0.0,87,0.00,,---,0.04,VWS V14.01,2013-11-23 02:41:00,
2013-11-22 21:46:00,50.5,47.1,29.93,West,278,0.0,0.0,88,0.00,,---,0.04,VWS V14.01,2013-11-23 02:46:00,
2013-11-22 21:51:00,50.4,47.3,29.93,West,278,1.0,1.0,89,0.00,,---,0.04,VWS V14.01,2013-11-23 02:51:00,
2013-11-22 21:56:00,50.1,47.0,29.93,West,278,0.0,1.0,89,0.00,,---,0.04,VWS V14.01,2013-11-23 02:56:00,
2013-11-22 22:01:00,49.9,46.8,29.93,West,278,0.0,0.0,89,0.00,,---,0.04,VWS V14.01,2013-11-23 03:01:00,
2013-11-22 22:06:00,49.6,46.8,29.93,West,278,0.0,0.0,90,0.00,,---,0.04,VWS V14.01,2013-11-23 03:06:00,
2013-11-22 22:11:00,49.4,46.6,29.93,West,278,0.0,0.0,90,0.00,,---,0.04,VWS V14.01,2013-11-23 03:11:00,
2013-11-22 22:16:00,49.2,46.4,29.93,West,278,0.0,0.0,90,0.00,,---,0.04,VWS V14.01,2013-11-23 03:16:00,
2013-11-22 22:21:00,49.2,46.7,29.93,West,278,0.0,0.0,91,0.00,,---,0.04,VWS V14.01,2013-11-23 03:21:00,
2013-11-22 22:26:00,49.1,46.6,29.93,West,278,0.0,1.0,91,0.00,,---,0.04,VWS V14.01,2013-11-23 03:26:00,
2013-11-22 22:31:00,49.3,47.1,29.93,West,280,0.0,1.0,92,0.00,,---,0.04,VWS V14.01,2013-11-23 03:31:00,
2013-11-22 22:36:00,49.1,46.6,29.93,West,278,0.0,0.0,91,0.00,,---,0.04,VWS V14.01,2013-11-23 03:36:00,
2013-11-22 22:41:00,49.1,46.6,29.93,West,278,0.0,0.0,91,0.00,,---,0.04,VWS V14.01,2013-11-23 03:41:00,
2013-11-22 22:46:00,48.8,46.3,29.93,West,280,0.0,0.0,91,0.00,,---,0.04,VWS V14.01,2013-11-23 03:46:00,
2013-11-22 22:51:00,48.7,46.5,29.93,West,280,0.0,0.0,92,0.00,,---,0.04,VWS V14.01,2013-11-23 03:51:00,
2013-11-22 22:56:00,48.8,46.6,29.93,WSW,256,1.0,1.0,92,0.00,,---,0.04,VWS V14.01,2013-11-23 03:56:00,
2013-11-22 23:01:00,48.8,46.6,29.93,WSW,257,0.0,1.0,92,0.00,,---,0.04,VWS V14.01,2013-11-23 04:01:00,
2013-11-22 23:06:00,48.8,46.6,29.93,WSW,256,0.0,0.0,92,0.00,,---,0.04,VWS V14.01,2013-11-23 04:06:00,
2013-11-22 23:11:00,48.8,46.6,29.93,WSW,253,0.0,0.0,92,0.00,,---,0.04,VWS V14.01,2013-11-23 04:11:00,
2013-11-22 23:16:00,49.4,47.5,29.93,WSW,252,0.0,3.0,93,0.00,,---,0.04,VWS V14.01,2013-11-23 04:16:00,
2013-11-22 23:21:00,50.4,47.9,29.93,West,278,0.0,3.0,91,0.00,,---,0.04,VWS V14.01,2013-11-23 04:21:00,
2013-11-22 23:26:00,50.8,47.7,29.93,West,262,1.0,3.0,89,0.00,,---,0.04,VWS V14.01,2013-11-23 04:26:00,
2013-11-22 23:31:00,51.1,47.7,29.93,North,354,0.0,3.0,88,0.00,,---,0.04,VWS V14.01,2013-11-23 04:31:00,
2013-11-22 23:36:00,51.0,47.3,29.93,WNW,297,1.0,2.0,87,0.00,,---,0.04,VWS V14.01,2013-11-23 04:36:00,
2013-11-22 23:41:00,51.1,47.4,29.93,NNW,335,1.0,3.0,87,0.00,,---,0.04,VWS V14.01,2013-11-23 04:41:00,
2013-11-22 23:46:00,51.7,47.3,29.93,NW,305,2.0,6.0,85,0.00,,---,0.04,VWS V14.01,2013-11-23 04:46:00,
2013-11-22 23:51:00,52.2,47.2,29.92,NW,316,2.0,6.0,83,0.00,,---,0.04,VWS V14.01,2013-11-23 04:51:00,
2013-11-22 23:56:00,52.5,47.2,29.92,WNW,288,4.0,6.0,82,0.00,,---,0.04,VWS V14.01,2013-11-23 04:56:00,